sat.trackr.live / text

‹ back to catalog

STARLINK-30160

NORAD 57441 · 2023-105M

PAYLOAD ACTIVE UNKNOWN

§ Identity

Operator
Country
US
Launch date
2023-07-24
Launch site
AFETR
Launch vehicle
Mass (kg)
RCS (m²)

Purposes: comms

External: N2YO · Heavens-Above · Gunter

§ Orbital elements

Epoch: 2026-09-20T08:30:49.914432Z

Period
94.27 min
Inclination
43.0038°
Eccentricity
0.0001371
Mean motion
15.27573873 rev/d
Perigee alt
482.1 km
Apogee alt
484.0 km
Semi-major
6,861.2 km
B*
2.3842e-5
RAAN
247.2788°
Arg perigee
263.8403°
Mean anomaly
96.2292°
Rev number
17,511

§ Raw data

STARLINK-301601 57441U 23105M   26263.35474438  .00000394  00000+0  23842-4 0  99972 57441  43.0038 247.2788 0001371 263.8403  96.2292 15.27573873175110

JSON: /api/v1/satellites/57441 · /tle

For live sub-satellite position, see the globe view (requires WebGL).

§ Visibility from observer

Set your observer location to see the next 7 days of passes ≥ 10°. The values pass through the URL so the page stays shareable.

No JS? Fill the form by hand. The geolocation button needs JavaScript.